When you browse on this site, cookies collect data to enhance your experience and personalize the content and advertising you see.
Visit our Privacy Policy to learn more. By continuing to use the site, you agree to this use of cookies and data.

Stündliche Wetter Artaschat

Heute, 15 Juli, Mittwoch

Zeit Temperatur Niederschläge Wind Luftdruck Luftfeuchtigkeit
00:00 +18°C° 0.2 mm 1 m/S 603 mmHg 64%
01:00 +18°C° 0.2 mm 1 m/S 602 mmHg 66%
02:00 +16°C° 0.2 mm 1 m/S 602 mmHg 69%
03:00 +16°C° 0 mm 1 m/S 602 mmHg 69%
04:00 +16°C° 0.2 mm 1 m/S 602 mmHg 69%
05:00 +15°C° 0.2 mm 0 m/S 603 mmHg 68%
06:00 +15°C° 0.2 mm 0 m/S 603 mmHg 68%
07:00 +19°C° 0.1 mm 1 m/S 603 mmHg 63%
08:00 +20°C° 0.1 mm 1 m/S 604 mmHg 58%
09:00 +21°C° 0.1 mm 1 m/S 604 mmHg 53%
10:00 +21°C° 0.1 mm 2 m/S 604 mmHg 49%
11:00 +23°C° 0.1 mm 2 m/S 604 mmHg 45%
12:00 +24°C° 0.1 mm 2 m/S 604 mmHg 42%
13:00 +25°C° 0.2 mm 2 m/S 604 mmHg 40%
14:00 +25°C° 0.2 mm 2 m/S 604 mmHg 38%
15:00 +26°C° 0.2 mm 2 m/S 604 mmHg 37%
16:00 +26°C° 0.1 mm 2 m/S 604 mmHg 37%
17:00 +25°C° 0.1 mm 2 m/S 604 mmHg 38%
18:00 +25°C° 0.1 mm 2 m/S 604 mmHg 39%
19:00 +24°C° 0.2 mm 2 m/S 604 mmHg 44%
20:00 +22°C° 0.2 mm 1 m/S 603 mmHg 49%
21:00 +21°C° 0.2 mm 1 m/S 603 mmHg 55%
22:00 +20°C° 0 mm 1 m/S 603 mmHg 56%
23:00 +19°C° 0 mm 1 m/S 603 mmHg 58%

Morgen, 16 Juli, Donnerstag

Zeit Temperatur Niederschläge Wind Luftdruck Luftfeuchtigkeit
00:00 +19°C° 0 mm 1 m/S 603 mmHg 59%
01:00 +18°C° 0.1 mm 1 m/S 602 mmHg 62%
02:00 +18°C° 0.1 mm 1 m/S 602 mmHg 65%
03:00 +16°C° 0.1 mm 1 m/S 602 mmHg 68%
04:00 +16°C° 0.2 mm 1 m/S 602 mmHg 69%
05:00 +15°C° 0.2 mm 0 m/S 602 mmHg 69%
06:00 +16°C° 0.2 mm 0 m/S 602 mmHg 69%
07:00 +19°C° 0.1 mm 1 m/S 602 mmHg 65%
08:00 +20°C° 0.1 mm 1 m/S 603 mmHg 60%
09:00 +21°C° 0.1 mm 1 m/S 603 mmHg 56%
10:00 +21°C° 0.2 mm 2 m/S 603 mmHg 52%
11:00 +23°C° 0.2 mm 2 m/S 603 mmHg 48%
12:00 +24°C° 0.2 mm 3 m/S 603 mmHg 44%
13:00 +25°C° 0 mm 3 m/S 603 mmHg 42%
14:00 +26°C° 0 mm 3 m/S 603 mmHg 40%
15:00 +26°C° 0 mm 3 m/S 603 mmHg 37%
16:00 +26°C° 0.1 mm 3 m/S 603 mmHg 38%
17:00 +26°C° 0.1 mm 3 m/S 603 mmHg 38%
18:00 +25°C° 0.1 mm 3 m/S 602 mmHg 39%
19:00 +24°C° 0.1 mm 2 m/S 602 mmHg 43%
20:00 +23°C° 0.1 mm 2 m/S 602 mmHg 47%
21:00 +21°C° 0.1 mm 1 m/S 602 mmHg 51%
22:00 +21°C° 0 mm 1 m/S 602 mmHg 53%
23:00 +20°C° 0 mm 1 m/S 601 mmHg 55%

übermorgen, 17 Juli, Freitag

Zeit Temperatur Niederschläge Wind Luftdruck Luftfeuchtigkeit
00:00 +20°C° 0 mm 1 m/S 601 mmHg 57%
01:00 +19°C° 0 mm 1 m/S 601 mmHg 59%
02:00 +18°C° 0 mm 1 m/S 601 mmHg 61%
03:00 +18°C° 0 mm 1 m/S 600 mmHg 63%
04:00 +18°C° 0 mm 1 m/S 601 mmHg 63%
05:00 +18°C° 0 mm 1 m/S 601 mmHg 62%
06:00 +19°C° 0 mm 1 m/S 601 mmHg 61%
07:00 +19°C° 0 mm 2 m/S 601 mmHg 56%
08:00 +20°C° 0 mm 2 m/S 602 mmHg 52%
09:00 +22°C° 0 mm 3 m/S 602 mmHg 47%
10:00 +24°C° 0 mm 3 m/S 602 mmHg 44%
11:00 +25°C° 0 mm 3 m/S 602 mmHg 41%
12:00 +26°C° 0 mm 3 m/S 603 mmHg 38%
13:00 +26°C° 0.1 mm 3 m/S 602 mmHg 39%
14:00 +26°C° 0.1 mm 3 m/S 602 mmHg 40%
15:00 +26°C° 0.1 mm 3 m/S 601 mmHg 40%
16:00 +26°C° 0 mm 3 m/S 601 mmHg 41%
17:00 +25°C° 0 mm 3 m/S 601 mmHg 42%
18:00 +25°C° 0 mm 2 m/S 601 mmHg 43%
19:00 +24°C° 0 mm 2 m/S 601 mmHg 47%
20:00 +23°C° 0 mm 1 m/S 601 mmHg 50%
21:00 +22°C° 0 mm 1 m/S 601 mmHg 54%
22:00 +21°C° 0 mm 1 m/S 601 mmHg 56%
23:00 +20°C° 0 mm 1 m/S 601 mmHg 58%

18 Juli, Samstag

Zeit Temperatur Niederschläge Wind Luftdruck Luftfeuchtigkeit
00:00 +20°C° 0 mm 1 m/S 601 mmHg 60%
01:00 +19°C° 0 mm 1 m/S 600 mmHg 62%
02:00 +18°C° 0 mm 1 m/S 600 mmHg 63%
03:00 +18°C° 0 mm 1 m/S 600 mmHg 65%
04:00 +16°C° 0 mm 0 m/S 601 mmHg 65%
05:00 +17°C° 0 mm 0 m/S 601 mmHg 65%
06:00 +17°C° 0 mm 0 m/S 601 mmHg 65%
07:00 +21°C° 0 mm 1 m/S 602 mmHg 59%
08:00 +22°C° 0 mm 1 m/S 602 mmHg 53%
09:00 +23°C° 0 mm 1 m/S 603 mmHg 47%
10:00 +25°C° 0 mm 2 m/S 603 mmHg 43%
11:00 +26°C° 0 mm 2 m/S 603 mmHg 40%
12:00 +27°C° 0 mm 2 m/S 604 mmHg 36%
13:00 +28°C° 0 mm 3 m/S 604 mmHg 35%
14:00 +29°C° 0 mm 3 m/S 604 mmHg 33%
15:00 +29°C° 0 mm 3 m/S 604 mmHg 31%
16:00 +29°C° 0 mm 3 m/S 604 mmHg 32%
17:00 +29°C° 0 mm 3 m/S 604 mmHg 33%
18:00 +28°C° 0 mm 2 m/S 603 mmHg 34%
19:00 +27°C° 0 mm 2 m/S 603 mmHg 38%
20:00 +25°C° 0 mm 1 m/S 603 mmHg 43%
21:00 +22°C° 0 mm 0 m/S 603 mmHg 48%
22:00 +21°C° 0 mm 0 m/S 603 mmHg 49%
23:00 +20°C° 0 mm 0 m/S 603 mmHg 50%

19 Juli, Sonntag

Zeit Temperatur Niederschläge Wind Luftdruck Luftfeuchtigkeit
00:00 +20°C° 0 mm 0 m/S 603 mmHg 51%
01:00 +19°C° 0 mm 0 m/S 603 mmHg 52%
02:00 +19°C° 0 mm 0 m/S 603 mmHg 53%
03:00 +18°C° 0 mm 0 m/S 603 mmHg 54%
04:00 +18°C° 0 mm 0 m/S 603 mmHg 55%
05:00 +19°C° 0 mm 0 m/S 603 mmHg 56%
06:00 +19°C° 0 mm 0 m/S 603 mmHg 57%
07:00 +23°C° 0 mm 1 m/S 604 mmHg 52%
08:00 +24°C° 0 mm 1 m/S 604 mmHg 46%
09:00 +25°C° 0 mm 1 m/S 605 mmHg 40%
10:00 +27°C° 0 mm 2 m/S 605 mmHg 38%
11:00 +28°C° 0 mm 2 m/S 605 mmHg 35%
12:00 +29°C° 0 mm 3 m/S 605 mmHg 33%
13:00 +30°C° 0 mm 3 m/S 605 mmHg 31%
14:00 +30°C° 0 mm 3 m/S 605 mmHg 30%
15:00 +31°C° 0 mm 3 m/S 605 mmHg 29%
16:00 +30°C° 0 mm 3 m/S 605 mmHg 30%
17:00 +30°C° 0 mm 2 m/S 605 mmHg 31%
18:00 +30°C° 0 mm 2 m/S 605 mmHg 31%
19:00 +28°C° 0 mm 1 m/S 604 mmHg 37%
20:00 +26°C° 0 mm 1 m/S 604 mmHg 42%
21:00 +25°C° 0 mm 1 m/S 604 mmHg 47%
22:00 +24°C° 0 mm 1 m/S 603 mmHg 49%
23:00 +23°C° 0 mm 1 m/S 603 mmHg 52%

20 Juli, Montag

Zeit Temperatur Niederschläge Wind Luftdruck Luftfeuchtigkeit
00:00 +22°C° 0 mm 1 m/S 603 mmHg 54%
01:00 +20°C° 0 mm 0 m/S 603 mmHg 57%
02:00 +19°C° 0 mm 0 m/S 602 mmHg 59%
03:00 +18°C° 0 mm 0 m/S 602 mmHg 61%
04:00 +19°C° 0 mm 0 m/S 602 mmHg 62%
05:00 +19°C° 0 mm 0 m/S 602 mmHg 62%
06:00 +21°C° 0 mm 1 m/S 602 mmHg 63%
07:00 +23°C° 0 mm 1 m/S 603 mmHg 57%
08:00 +24°C° 0 mm 1 m/S 603 mmHg 52%
09:00 +26°C° 0 mm 1 m/S 603 mmHg 46%
10:00 +27°C° 0 mm 2 m/S 604 mmHg 42%
11:00 +28°C° 0 mm 2 m/S 604 mmHg 37%
12:00 +30°C° 0 mm 2 m/S 604 mmHg 33%
13:00 +30°C° 0 mm 3 m/S 604 mmHg 31%
14:00 +31°C° 0 mm 3 m/S 604 mmHg 29%
15:00 +33°C° 0 mm 3 m/S 604 mmHg 27%
16:00 +31°C° 0 mm 3 m/S 603 mmHg 28%
17:00 +31°C° 0 mm 2 m/S 603 mmHg 29%
18:00 +30°C° 0 mm 2 m/S 603 mmHg 30%
19:00 +28°C° 0 mm 2 m/S 602 mmHg 35%
20:00 +27°C° 0 mm 1 m/S 602 mmHg 39%
21:00 +25°C° 0 mm 1 m/S 602 mmHg 43%
22:00 +24°C° 0 mm 1 m/S 601 mmHg 45%
23:00 +22°C° 0 mm 0 m/S 601 mmHg 47%
Mehr zeigen